{"data":{"norad_id":53475,"intl_designator":"2022-099L","name":"STARLINK-4389","alt_names":[],"object_type":"PAYLOAD","status":"ACTIVE","operator":null,"country":"US","launch_date":"2022-08-12","launch_site_code":"AFWTR","launch_vehicle":null,"mission":null,"orbit_class":"UNKNOWN","rcs_meters":null,"size_class":null,"mass_kg":null,"dimensions":null,"purposes":["comms"],"wikipedia_slug":null,"has_3d_model":false,"image_url":null,"decayed_at":null,"tle_current":{"epoch":"2026-05-25T06:00:02.000160Z","epoch_age_seconds":49974,"freshness":"FRESH","line1":"1 53475U 22099L   26145.25002315  .00202029  00000+0  44686-2 0  9996","line2":"2 53475  97.6032 267.3354 0001120  65.6191  80.4850 15.43032819  5786","mean_motion":15.43032819,"eccentricity":0.000112,"inclination_deg":97.6032,"raan_deg":267.3354,"arg_perigee_deg":65.6191,"mean_anomaly_deg":80.485,"bstar":0.0044686,"rev_number":578,"period_min":93.322707221045,"perigee_km":436.40107039627,"apogee_km":437.92769790632,"semimajor_km":6815.3013841513,"source":"CELESTRAK","updated_at":"2026-05-25T13:38:17.430768Z"}}}